| Temperature (°F) | Max | Average | Min |
|---|---|---|---|
| Max Temperature | 96 | 86.84 | 66 |
| Avg Temperature | 82.29 | 74.31 | 64.4 |
| Min Temperature | 69 | 61.81 | 54 |
| Precipitation (in) | Max | Average | Min | Sum |
|---|---|---|---|---|
| Precipitation | 0.62 | 0.04 | 0 | 1.17 |
| Dew Point (°F) | Max | Average | Min |
|---|---|---|---|
| Dew Point | 63.92 | 58.06 | 48.75 |
| Wind (mph) | Max | Average | Min |
|---|---|---|---|
| Wind | 13 | 5.97 | 2 |
| Gust Wind | 20 | 8.81 | 2 |
| Sea Level Pressure (in) | Max | Average | Min |
|---|---|---|---|
| Sea Level Pressure | 29.62 | 29.41 | 29.14 |
| Date | Temp High/Low | Dew Pt High/Low | Humidity | Wind | Max Wind | Wind Gust | Pressure | Precip. | Condition |
|---|---|---|---|---|---|---|---|---|---|
| 8/1/2026 | 89 °F / 65 °F | 64 °F / 56 °F | 61 % | 4 mph | - | 29.44 in | 0 in | ||
| 8/2/2026 | 90 °F / 63 °F | 62 °F / 51 °F | 58 % | 7 mph | - | 29.42 in | 0 in | ||
| 8/3/2026 | 91 °F / 58 °F | 62 °F / 54 °F | 55 % | 4 mph | - | 29.42 in | 0 in | ||
| 8/4/2026 | 93 °F / 61 °F | 62 °F / 49 °F | 52 % | 7 mph | - | 29.41 in | 0 in | ||
| 8/5/2026 | 96 °F / 65 °F | 66 °F / 53 °F | 48 % | 7 mph | - | 29.41 in | 0 in | ||
| 8/6/2026 | 95 °F / 64 °F | 67 °F / 59 °F | 57 % | 7 mph | - | 29.38 in | 0 in | ||
| 8/7/2026 | 93 °F / 65 °F | 68 °F / 57 °F | 58 % | 9 mph | - | 29.3 in | 0 in | ||
| 8/8/2026 | 90 °F / 66 °F | 68 °F / 61 °F | 66 % | 13 mph | - | 29.31 in | 0 in | ||
| 8/9/2026 | 85 °F / 64 °F | 65 °F / 54 °F | 67 % | 4 mph | - | 29.45 in | 0 in | ||
| 8/10/2026 | 88 °F / 60 °F | 62 °F / 53 °F | 59 % | 4 mph | - | 29.46 in | 0 in | ||
| 8/11/2026 | 94 °F / 60 °F | 62 °F / 52 °F | 57 % | 4 mph | - | 29.38 in | 0 in | ||
| 8/12/2026 | 87 °F / 65 °F | 62 °F / 54 °F | 52 % | 9 mph | - | 29.48 in | 0 in | ||
| 8/13/2026 | 79 °F / 66 °F | 58 °F / 48 °F | 49 % | 9 mph | - | 29.62 in | 0 in | ||
| 8/14/2026 | 81 °F / 57 °F | 57 °F / 45 °F | 50 % | 7 mph | - | 29.58 in | 0 in | ||
| 8/15/2026 | 84 °F / 58 °F | 53 °F / 46 °F | 49 % | 4 mph | - | 29.52 in | 0 in | ||
| 8/16/2026 | 85 °F / 55 °F | 55 °F / 49 °F | 54 % | 4 mph | - | 29.45 in | 0 in | ||
| 8/17/2026 | 92 °F / 54 °F | 56 °F / 51 °F | 57 % | 7 mph | - | 29.28 in | 0 in | ||
| 8/18/2026 | 94 °F / 56 °F | 57 °F / 50 °F | 58 % | 9 mph | - | 29.13 in | 0 in | ||
| 8/19/2026 | 84 °F / 63 °F | 60 °F / 53 °F | 60 % | 7 mph | - | 29.31 in | 0 in | ||
| 8/20/2026 | 94 °F / 62 °F | 59 °F / 55 °F | 54 % | 7 mph | - | 29.4 in | 0 in | ||
| 8/21/2026 | 96 °F / 59 °F | 62 °F / 54 °F | 52 % | 4 mph | - | 29.35 in | 0 in | ||
| 8/22/2026 | 95 °F / 62 °F | 67 °F / 58 °F | 63 % | 4 mph | - | 29.26 in | 0 in | ||
| 8/23/2026 | 88 °F / 68 °F | 64 °F / 56 °F | 57 % | 4 mph | - | 29.36 in | 0 in | ||
| 8/24/2026 | 87 °F / 68 °F | 64 °F / 53 °F | 53 % | 7 mph | - | 29.46 in | 0 in | ||
| 8/25/2026 | 89 °F / 64 °F | 63 °F / 54 °F | 60 % | 7 mph | - | 29.41 in | 0 in | ||
| 8/26/2026 | 83 °F / 63 °F | 68 °F / 53 °F | 76 % | 4 mph | - | 29.39 in | 0.41 in | ||
| 8/27/2026 | 78 °F / 60 °F | 66 °F / 59 °F | 86 % | 7 mph | - | 29.47 in | 0.75 in | ||
| 8/28/2026 | 79 °F / 57 °F | 60 °F / 51 °F | 72 % | 7 mph | - | 29.53 in | 0 in | ||
| 8/29/2026 | 81 °F / 55 °F | 60 °F / 52 °F | 68 % | 4 mph | - | 29.49 in | 0 in | ||
| 8/30/2026 | 84 °F / 61 °F | 62 °F / 59 °F | 71 % | 4 mph | - | 29.43 in | 0.01 in | ||
| 8/31/2026 | 68 °F / 63 °F | 63 °F / 59 °F | 86 % | 4 mph | - | 29.46 in | 0 in |